OneWeb SL0219

operational
NORAD ID: 48223 Int'l Des: 2021-031 Owner: ONEWEBN Country: UK Constellation: oneweb
LEOCIRCULARPOLARONEWEB_TYPE

OneWeb SL0219について

説明を読み込み中...

リアルタイム位置

3D地球を読み込み中...

次回通過

高度履歴

Altitude vs Time

uPlot chart will show altitude changes over time

軌道要素

1 48223U 21031P 25351.91082309 .00000255 00000-0 65321-3 0 9996
2 48223 87.8995 325.8149 0001524 85.7238 274.4066 13.14505158224565
Epoch: Dec 17, 2025 • Age: 12 hours

現在のステータス

高度 1208.2 km
速度 7.25 km/s
衛星直下点 4.64°N, 87.35°W
打ち上げ日 Apr 25, 2021
運用期間 4.6 years
タイプ internet

技術仕様

分類 Payload
質量 148.00 kg
乾燥質量 140.00 kg
総質量 148.00 kg
長さ 1.30 m
直径 1.00 m
スパン 5.00 m
形状 Trapezoid+2 pan
製造者 ONEWUS
バスタイプ ARROW
フェーズステータス In Orbit
所有者/国 ONEWEBN/UK

大規模コンステレーション

Loading constellations...